CW1172 Weather Reports


time (UTC)temp
C
wind
direction
speed
KPH
gust
KPH
rain 1hr
cm
rain 24hr
cm
rain mn
cm
humidity
%
barometer
mb
20260502234550 10 189 0.0 0.0 0.00 0.00 0.00 84 1008.9
20260502233042 10 188 0.0 0.0 0.00 0.00 0.00 83 1009.0
20260502231539 10 182 0.0 0.0 0.00 0.00 0.00 82 1009.0
20260502230038 11 187 0.0 0.0 0.00 0.00 0.00 81 1009.0
20260502224543 11 223 0.0 0.0 0.00 0.00 0.00 79 1008.9
20260502223040 11 173 0.0 0.0 0.00 0.00 0.00 77 1009.0
20260502221536 11 187 0.0 0.0 0.00 0.00 0.00 75 1009.2
20260502220034 11 360 0.0 0.0 0.00 0.00 0.00 74 1009.3
20260502214542 11 219 0.0 0.0 0.00 0.00 0.00 72 1009.4
20260502213032 11 227 0.0 0.0 0.00 0.00 0.00 71 1009.3
20260502211533 11 149 0.0 0.0 0.00 0.00 0.00 69 1009.1
20260502210035 12 360 0.0 0.0 0.00 0.00 0.00 69 1009.2
20260502204529 12 223 0.0 0.0 0.00 0.00 0.00 68 1009.3
20260502203029 12 360 0.0 0.0 0.00 0.00 0.00 67 1009.4
20260502201527 12 341 0.0 0.0 0.00 0.00 0.00 66 1009.9
20260502200028 12 219 0.0 0.0 0.00 0.00 0.00 65 1010.0
20260502194532 13 161 0.0 0.0 0.00 0.00 0.00 62 1010.2
20260502193027 13 360 0.0 0.0 0.00 0.00 0.00 62 1010.1
20260502191529 14 360 0.0 0.0 0.00 0.00 0.00 61 1009.9
20260502190030 14 244 0.0 0.0 0.00 0.00 0.00 60 1009.7
20260502184526 15 272 0.0 0.0 0.00 0.00 0.00 60 1009.7
20260502183026 15 360 0.0 0.0 0.00 0.00 0.00 60 1009.6
20260502181535 15 245 0.0 0.0 0.00 0.00 0.00 58 1009.6
20260502163037 19 245 0.0 0.0 0.00 0.00 0.00 51 1010.1
20260502161524 20 360 0.0 0.0 0.00 0.00 0.00 50 1010.1
20260502151528 20 215 0.0 0.0 0.00 0.00 0.00 54 1010.4
20260502123003 20 240 0.0 0.0 0.00 0.00 0.00 56 1012.4
20260502121504 20 218 0.0 0.0 0.00 0.00 0.00 56 1012.4
20260502114608 20 360 0.0 0.0 0.00 0.00 0.00 56 1012.8
20260502113104 20 360 0.0 0.0 0.00 0.00 0.00 56 1012.9
20260502111600 19 188 0.0 0.0 0.00 0.00 0.00 56 1013.0
20260502110055 19 231 0.0 0.0 0.00 0.00 0.00 55 1013.1
20260502104552 19 190 0.0 0.0 0.00 0.00 0.00 56 1013.1
20260502103102 18 202 0.0 0.0 0.00 0.00 0.00 57 1013.3
20260502101559 18 162 0.0 0.0 0.00 0.00 0.00 56 1013.4
20260502100113 18 360 0.0 0.0 0.00 0.00 0.00 58 1013.4
20260502070034 16 169 0.0 0.0 0.00 0.00 0.00 63 1014.5
20260502064533 16 360 0.0 0.0 0.00 0.00 0.00 64 1014.7
20260502063028 15 215 0.0 0.0 0.00 0.00 0.00 65 1014.7
20260502061532 14 159 0.0 0.0 0.00 0.00 0.00 67 1014.8
20260502060021 13 150 0.0 0.0 0.00 0.00 0.00 72 1015.0
20260502054514 11 157 0.0 0.0 0.00 0.00 0.00 76 1015.1
20260502053009 10 156 0.0 0.0 0.00 0.00 0.00 80 1015.3
20260502051520 10 187 0.0 0.0 0.00 0.00 0.00 83 1015.5
20260502050005 9 132 0.0 0.0 0.00 0.00 0.00 85 1015.6
20260502044504 8 157 0.0 0.0 0.00 0.00 0.00 87 1015.8
20260502043003 7 159 0.0 0.0 0.00 0.00 0.00 88 1016.0
20260502041507 7 155 0.0 0.0 0.00 0.00 0.00 89 1016.2
20260502040002 6 148 0.0 0.0 0.00 0.00 0.00 89 1016.5
20260502034558 6 161 0.0 0.0 0.00 0.00 0.00 89 1016.7
20260502033058 5 152 0.0 0.0 0.00 0.00 0.00 88 1016.8
20260502031558 5 141 0.0 0.0 0.00 0.00 0.00 87 1017.0
20260502030057 5 129 0.0 0.0 0.00 0.00 0.00 87 1017.3
20260502024600 6 143 0.0 0.0 0.00 0.00 0.00 86 1017.6
20260502023049 6 145 0.0 0.0 0.00 0.00 0.00 86 1017.8
20260502021550 6 150 0.0 0.0 0.00 0.00 0.00 84 1017.9
20260502020046 6 179 0.0 0.0 0.00 0.00 0.00 84 1018.0
20260502014541 7 144 0.0 0.0 0.00 0.00 0.00 83 1018.4
20260502013040 7 169 0.0 0.0 0.00 0.00 0.00 83 1018.5
20260502011539 8 222 0.0 0.0 0.00 0.00 0.00 83 1018.7
20260502010036 8 173 0.0 0.0 0.00 0.00 0.00 82 1018.8
20260502004535 7 176 0.0 0.0 0.00 0.00 0.00 82 1019.0
20260502003032 7 152 0.0 0.0 0.00 0.00 0.00 80 1019.1
20260502001532 7 168 0.0 0.0 0.00 0.00 0.00 80 1019.1
20260502000030 8 160 0.0 0.0 0.00 0.00 0.00 79 1019.5